Time,TemperatureF,DewpointF,PressureIn,WindDirection,WindDirectionDegrees,WindSpeedMPH,WindSpeedGustMPH,Humidity,HourlyPrecipIn,Conditions,Clouds,dailyrainin,SolarRadiationWatts/m^2,SoftwareType,DateUTC
2013-01-12 00:05:00,40.6,37.6,30.22,NNE,23,3.0,4.0,89,0.00,,,0.00,0,Wunderground v.1.15,2013-01-12 08:05:00,
2013-01-12 00:14:00,40.6,37.6,30.22,NNE,20,4.0,6.0,89,0.00,,,0.00,0,Wunderground v.1.15,2013-01-12 08:14:00,
2013-01-12 00:19:00,40.6,37.6,30.22,NE,34,3.0,4.0,89,0.00,,,0.00,0,Wunderground v.1.15,2013-01-12 08:19:00,
2013-01-12 00:25:00,40.5,37.5,30.22,NE,37,3.0,4.0,89,0.00,,,0.00,0,Wunderground v.1.15,2013-01-12 08:25:00,
2013-01-12 00:35:00,40.4,37.4,30.22,NNE,26,4.0,8.0,89,0.00,,,0.00,0,Wunderground v.1.15,2013-01-12 08:35:00,
2013-01-12 00:44:00,40.5,37.5,30.22,NNE,33,7.0,8.0,89,0.00,,,0.00,0,Wunderground v.1.15,2013-01-12 08:44:00,
2013-01-12 00:50:00,40.6,37.6,30.21,NE,35,6.0,6.0,89,0.00,,,0.00,0,Wunderground v.1.15,2013-01-12 08:50:00,
2013-01-12 00:59:00,40.6,37.3,30.22,NNE,32,3.0,6.0,88,0.00,,,0.00,0,Wunderground v.1.15,2013-01-12 08:59:00,
2013-01-12 01:05:00,40.5,37.2,30.21,NE,38,4.0,6.0,88,0.00,,,0.00,0,Wunderground v.1.15,2013-01-12 09:05:00,
2013-01-12 01:14:00,40.4,37.1,30.22,NE,36,4.0,5.0,88,0.00,,,0.00,0,Wunderground v.1.15,2013-01-12 09:14:00,
2013-01-12 01:20:00,40.2,36.9,30.22,NE,35,4.0,4.0,88,0.00,,,0.00,0,Wunderground v.1.15,2013-01-12 09:20:00,
2013-01-12 01:29:00,40.2,36.9,30.22,NE,35,3.0,5.0,88,0.00,,,0.00,0,Wunderground v.1.15,2013-01-12 09:29:00,
2013-01-12 01:35:00,40.2,36.9,30.23,ENE,59,3.0,6.0,88,0.00,,,0.00,0,Wunderground v.1.15,2013-01-12 09:35:00,
2013-01-12 01:44:00,40.4,37.1,30.22,ENE,60,4.0,4.0,88,0.00,,,0.00,0,Wunderground v.1.15,2013-01-12 09:44:00,
2013-01-12 01:50:00,40.5,37.2,30.23,ENE,58,3.0,3.0,88,0.00,,,0.00,0,Wunderground v.1.15,2013-01-12 09:50:00,
2013-01-12 02:00:00,40.7,37.1,30.23,NE,45,3.0,4.0,87,0.00,,,0.00,0,Wunderground v.1.15,2013-01-12 10:00:00,
2013-01-12 02:09:00,40.8,36.9,30.23,NNE,32,4.0,6.0,86,0.00,,,0.00,0,Wunderground v.1.15,2013-01-12 10:09:00,
2013-01-12 02:14:00,40.8,36.9,30.23,NNE,28,4.0,6.0,86,0.00,,,0.00,0,Wunderground v.1.15,2013-01-12 10:14:00,
2013-01-12 02:24:00,40.7,36.2,30.23,NNE,25,4.0,4.0,84,0.00,,,0.00,0,Wunderground v.1.15,2013-01-12 10:24:00,
2013-01-12 02:30:00,40.6,36.1,30.24,NNE,28,4.0,4.0,84,0.00,,,0.00,0,Wunderground v.1.15,2013-01-12 10:30:00,
2013-01-12 02:39:00,40.3,35.8,30.24,NNE,21,4.0,4.0,84,0.00,,,0.00,0,Wunderground v.1.15,2013-01-12 10:39:00,
2013-01-12 02:45:00,40.1,35.7,30.24,NNE,20,4.0,4.0,84,0.00,,,0.00,0,Wunderground v.1.15,2013-01-12 10:45:00,
2013-01-12 02:54:00,39.9,35.8,30.23,NNE,22,4.0,4.0,85,0.00,,,0.00,0,Wunderground v.1.15,2013-01-12 10:54:00,
2013-01-12 02:59:00,39.8,35.7,30.24,NNE,20,3.0,3.0,85,0.00,,,0.00,0,Wunderground v.1.15,2013-01-12 10:59:00,
2013-01-12 03:09:00,39.7,35.6,30.24,NNE,22,3.0,3.0,85,0.00,,,0.00,0,Wunderground v.1.15,2013-01-12 11:09:00,
2013-01-12 03:14:00,39.6,35.2,30.24,NNE,23,3.0,3.0,84,0.00,,,0.00,0,Wunderground v.1.15,2013-01-12 11:14:00,
2013-01-12 03:24:00,39.4,35.0,30.24,NNE,27,3.0,3.0,84,0.00,,,0.00,0,Wunderground v.1.15,2013-01-12 11:24:00,
2013-01-12 03:29:00,39.3,35.2,30.24,NNE,31,4.0,4.0,85,0.00,,,0.00,0,Wunderground v.1.15,2013-01-12 11:29:00,
2013-01-12 03:35:00,39.2,35.1,30.24,NNE,29,3.0,4.0,85,0.00,,,0.00,0,Wunderground v.1.15,2013-01-12 11:35:00,
2013-01-12 03:44:00,39.3,35.2,30.24,NNE,30,2.0,3.0,85,0.00,,,0.00,0,Wunderground v.1.15,2013-01-12 11:44:00,
2013-01-12 03:50:00,39.3,34.9,30.24,NNE,30,2.0,3.0,84,0.00,,,0.00,0,Wunderground v.1.15,2013-01-12 11:50:00,
2013-01-12 03:59:00,39.2,34.8,30.24,NNE,25,4.0,4.0,84,0.00,,,0.00,0,Wunderground v.1.15,2013-01-12 11:59:00,
2013-01-12 04:05:00,39.1,34.7,30.24,NNE,24,4.0,4.0,84,0.00,,,0.00,0,Wunderground v.1.15,2013-01-12 12:05:00,
2013-01-12 04:14:00,39.0,34.6,30.24,NNE,24,3.0,4.0,84,0.00,,,0.00,0,Wunderground v.1.15,2013-01-12 12:14:00,
2013-01-12 04:20:00,38.9,34.5,30.24,NNE,22,1.0,1.0,84,0.00,,,0.00,0,Wunderground v.1.15,2013-01-12 12:20:00,
2013-01-12 04:29:00,38.7,34.3,30.24,NNE,26,1.0,1.0,84,0.00,,,0.00,0,Wunderground v.1.15,2013-01-12 12:29:00,
2013-01-12 04:35:00,38.6,34.2,30.24,NNE,23,2.0,2.0,84,0.00,,,0.00,0,Wunderground v.1.15,2013-01-12 12:35:00,
2013-01-12 04:44:00,38.2,34.1,30.24,NNE,24,3.0,3.0,85,0.00,,,0.00,0,Wunderground v.1.15,2013-01-12 12:44:00,
2013-01-12 04:54:00,37.9,33.8,30.23,NNE,26,3.0,3.0,85,0.00,,,0.00,0,Wunderground v.1.15,2013-01-12 12:54:00,
2013-01-12 04:59:00,37.8,33.7,30.24,NNE,26,3.0,3.0,85,0.00,,,0.00,0,Wunderground v.1.15,2013-01-12 12:59:00,
2013-01-12 05:05:00,37.7,33.6,30.24,NNE,27,2.0,3.0,85,0.00,,,0.00,0,Wunderground v.1.15,2013-01-12 13:05:00,
2013-01-12 05:14:00,37.6,33.8,30.24,NNE,25,2.0,2.0,86,0.00,,,0.00,0,Wunderground v.1.15,2013-01-12 13:14:00,
2013-01-12 05:24:00,37.8,34.0,30.24,NNE,26,1.0,1.0,86,0.00,,,0.00,0,Wunderground v.1.15,2013-01-12 13:24:00,
2013-01-12 05:29:00,38.0,34.5,30.25,NNE,26,1.0,1.0,87,0.00,,,0.00,0,Wunderground v.1.15,2013-01-12 13:29:00,
2013-01-12 05:35:00,38.1,34.6,30.25,NNE,26,1.0,1.0,87,0.00,,,0.00,0,Wunderground v.1.15,2013-01-12 13:35:00,
2013-01-12 05:44:00,38.4,34.9,30.25,NNE,26,0.0,0.0,87,0.00,,,0.00,0,Wunderground v.1.15,2013-01-12 13:44:00,
2013-01-12 05:50:00,38.2,34.4,30.25,NNE,26,0.0,0.0,86,0.00,,,0.00,0,Wunderground v.1.15,2013-01-12 13:50:00,
2013-01-12 05:59:00,38.1,34.3,30.26,NNE,25,0.0,0.0,86,0.00,,,0.00,0,Wunderground v.1.15,2013-01-12 13:59:00,
2013-01-12 06:05:00,37.8,34.0,30.26,NNE,25,0.0,0.0,86,0.00,,,0.00,0,Wunderground v.1.15,2013-01-12 14:05:00,
2013-01-12 06:14:00,37.6,34.1,30.27,NNE,27,0.0,0.0,87,0.00,,,0.00,0,Wunderground v.1.15,2013-01-12 14:14:00,
2013-01-12 06:24:00,37.7,34.2,30.27,NNE,25,0.0,0.0,87,0.00,,,0.00,0,Wunderground v.1.15,2013-01-12 14:24:00,
2013-01-12 06:30:00,37.8,34.6,30.27,NNE,26,0.0,0.0,88,0.00,,,0.00,0,Wunderground v.1.15,2013-01-12 14:30:00,
2013-01-12 06:40:00,38.2,35.0,30.28,NNE,26,0.0,0.0,88,0.00,,,0.00,0,Wunderground v.1.15,2013-01-12 14:40:00,
2013-01-12 06:49:00,38.2,34.7,30.28,NNE,25,0.0,0.0,87,0.00,,,0.00,0,Wunderground v.1.15,2013-01-12 14:49:00,
2013-01-12 06:55:00,38.2,34.7,30.28,NNE,24,0.0,0.0,87,0.00,,,0.00,0,Wunderground v.1.15,2013-01-12 14:55:00,
2013-01-12 07:04:00,38.0,34.5,30.28,NNE,24,0.0,0.0,87,0.00,,,0.00,0,Wunderground v.1.15,2013-01-12 15:04:00,
2013-01-12 07:10:00,37.7,33.9,30.28,NNE,25,0.0,0.0,86,0.00,,,0.00,0,Wunderground v.1.15,2013-01-12 15:10:00,
2013-01-12 07:19:00,37.1,33.3,30.28,NNE,26,0.0,0.0,86,0.00,,,0.00,0,Wunderground v.1.15,2013-01-12 15:19:00,
2013-01-12 07:25:00,37.0,33.5,30.28,NNE,26,0.0,0.0,87,0.00,,,0.00,5,Wunderground v.1.15,2013-01-12 15:25:00,
2013-01-12 07:34:00,37.0,33.8,30.29,NNE,31,0.0,0.0,88,0.00,,,0.00,9,Wunderground v.1.15,2013-01-12 15:34:00,
2013-01-12 07:40:00,37.2,34.0,30.29,SSW,213,0.0,0.0,88,0.00,,,0.00,14,Wunderground v.1.15,2013-01-12 15:40:00,
2013-01-12 07:49:00,38.5,35.5,30.29,NNE,28,0.0,0.0,89,0.00,,,0.00,21,Wunderground v.1.15,2013-01-12 15:49:00,
2013-01-12 07:59:00,40.4,37.4,30.29,NNE,21,0.0,0.0,89,0.00,,,0.00,33,Wunderground v.1.15,2013-01-12 15:59:00,
2013-01-12 08:04:00,41.4,37.8,30.29,NNE,27,0.0,1.0,87,0.00,,,0.00,46,Wunderground v.1.15,2013-01-12 16:04:00,
2013-01-12 08:14:00,42.3,37.8,30.29,SSW,213,1.0,3.0,84,0.00,,,0.00,37,Wunderground v.1.15,2013-01-12 16:14:00,
2013-01-12 08:19:00,41.6,36.2,30.29,NNE,20,1.0,1.0,81,0.00,,,0.00,79,Wunderground v.1.15,2013-01-12 16:19:00,
2013-01-12 08:29:00,41.3,36.5,30.30,NNE,24,0.0,0.0,83,0.00,,,0.00,105,Wunderground v.1.15,2013-01-12 16:29:00,
2013-01-12 08:35:00,43.1,38.6,30.29,NNE,26,0.0,0.0,84,0.00,,,0.00,118,Wunderground v.1.15,2013-01-12 16:35:00,
2013-01-12 08:44:00,46.6,40.4,30.29,NNE,23,0.0,0.0,79,0.00,,,0.00,151,Wunderground v.1.15,2013-01-12 16:44:00,
2013-01-12 08:50:00,47.7,40.8,30.29,NNE,29,0.0,0.0,77,0.00,,,0.00,169,Wunderground v.1.15,2013-01-12 16:50:00,
2013-01-12 08:59:00,50.3,42.3,30.30,NNE,29,0.0,0.0,74,0.00,,,0.00,202,Wunderground v.1.15,2013-01-12 16:59:00,
2013-01-12 09:09:00,51.9,40.9,30.30,SSW,213,0.0,0.0,66,0.00,,,0.00,230,Wunderground v.1.15,2013-01-12 17:09:00,
2013-01-12 09:14:00,52.8,40.5,30.30,SSW,213,0.0,0.0,63,0.00,,,0.00,243,Wunderground v.1.15,2013-01-12 17:14:00,
2013-01-12 09:20:00,53.9,40.3,30.30,NNE,33,0.0,0.0,60,0.00,,,0.00,257,Wunderground v.1.15,2013-01-12 17:20:00,
2013-01-12 09:29:00,55.3,38.4,30.29,NNE,26,0.0,0.0,53,0.00,,,0.00,279,Wunderground v.1.15,2013-01-12 17:29:00,
2013-01-12 09:34:00,54.7,36.9,30.29,NNE,28,0.0,1.0,51,0.00,,,0.00,294,Wunderground v.1.15,2013-01-12 17:34:00,
2013-01-12 09:40:00,54.1,36.9,30.29,NNE,25,0.0,0.0,52,0.00,,,0.00,306,Wunderground v.1.15,2013-01-12 17:40:00,
2013-01-12 09:49:00,53.7,35.5,30.29,NNE,21,1.0,1.0,50,0.00,,,0.00,332,Wunderground v.1.15,2013-01-12 17:49:00,
2013-01-12 09:59:00,52.5,33.4,30.29,SSW,213,1.0,7.0,48,0.00,,,0.00,353,Wunderground v.1.15,2013-01-12 17:59:00,
2013-01-12 10:04:00,48.6,33.1,30.29,SW,218,3.0,7.0,55,0.00,,,0.00,366,Wunderground v.1.15,2013-01-12 18:04:00,
2013-01-12 10:10:00,47.2,33.2,30.29,SW,231,3.0,3.0,58,0.00,,,0.00,376,Wunderground v.1.15,2013-01-12 18:10:00,
2013-01-12 10:19:00,46.7,34.0,30.29,SW,224,2.0,2.0,61,0.00,,,0.00,397,Wunderground v.1.15,2013-01-12 18:19:00,
2013-01-12 10:25:00,47.2,34.0,30.29,SW,224,1.0,2.0,60,0.00,,,0.00,408,Wunderground v.1.15,2013-01-12 18:25:00,
2013-01-12 10:34:00,47.5,33.4,30.29,SW,218,2.0,2.0,58,0.00,,,0.00,427,Wunderground v.1.15,2013-01-12 18:34:00,
2013-01-12 10:40:00,47.3,31.9,30.28,SW,222,1.0,1.0,55,0.00,,,0.00,438,Wunderground v.1.15,2013-01-12 18:40:00,
2013-01-12 10:49:00,47.5,30.7,30.28,SW,224,1.0,1.0,52,0.00,,,0.00,455,Wunderground v.1.15,2013-01-12 18:49:00,
2013-01-12 10:55:00,47.5,31.2,30.28,SW,218,0.0,1.0,53,0.00,,,0.00,464,Wunderground v.1.15,2013-01-12 18:55:00,
2013-01-12 11:04:00,48.6,31.8,30.28,SW,230,0.0,0.0,52,0.00,,,0.00,480,Wunderground v.1.15,2013-01-12 19:04:00,
2013-01-12 11:14:00,48.4,33.0,30.27,SW,230,2.0,2.0,55,0.00,,,0.00,494,Wunderground v.1.15,2013-01-12 19:14:00,
2013-01-12 11:19:00,48.2,31.9,30.27,SSW,213,3.0,3.0,53,0.00,,,0.00,499,Wunderground v.1.15,2013-01-12 19:19:00,
2013-01-12 11:25:00,47.6,32.2,30.26,SW,222,4.0,4.0,55,0.00,,,0.00,508,Wunderground v.1.15,2013-01-12 19:25:00,
2013-01-12 11:34:00,47.1,31.7,30.26,SSW,213,4.0,4.0,55,0.00,,,0.00,517,Wunderground v.1.15,2013-01-12 19:34:00,
2013-01-12 11:44:00,47.7,28.9,30.25,SSW,213,2.0,3.0,48,0.00,,,0.00,526,Wunderground v.1.15,2013-01-12 19:44:00,
2013-01-12 11:49:00,47.6,27.8,30.25,SSW,213,3.0,4.0,46,0.00,,,0.00,531,Wunderground v.1.15,2013-01-12 19:49:00,
2013-01-12 11:59:00,48.0,29.2,30.25,SSW,213,3.0,3.0,48,0.00,,,0.00,538,Wunderground v.1.15,2013-01-12 19:59:00,
2013-01-12 12:04:00,48.1,29.3,30.24,SW,218,3.0,4.0,48,0.00,,,0.00,541,Wunderground v.1.15,2013-01-12 20:04:00,
2013-01-12 12:09:00,47.6,28.9,30.24,SSW,213,3.0,3.0,48,0.00,,,0.00,545,Wunderground v.1.15,2013-01-12 20:09:00,
2013-01-12 12:19:00,47.2,29.0,30.24,SSW,213,3.0,3.0,49,0.00,,,0.00,545,Wunderground v.1.15,2013-01-12 20:19:00,
2013-01-12 12:25:00,47.4,29.7,30.24,SSW,213,2.0,3.0,50,0.00,,,0.00,547,Wunderground v.1.15,2013-01-12 20:25:00,
2013-01-12 12:34:00,47.4,30.2,30.23,WSW,248,3.0,3.0,51,0.00,,,0.00,548,Wunderground v.1.15,2013-01-12 20:34:00,
2013-01-12 12:39:00,47.2,29.0,30.23,WSW,245,3.0,3.0,49,0.00,,,0.00,548,Wunderground v.1.15,2013-01-12 20:39:00,
2013-01-12 12:49:00,47.9,29.6,30.22,WSW,250,2.0,2.0,49,0.00,,,0.00,534,Wunderground v.1.15,2013-01-12 20:49:00,
2013-01-12 12:54:00,48.1,29.8,30.22,WSW,241,2.0,4.0,49,0.00,,,0.00,533,Wunderground v.1.15,2013-01-12 20:54:00,
2013-01-12 13:04:00,47.8,31.0,30.22,WSW,241,3.0,5.0,52,0.00,,,0.00,536,Wunderground v.1.15,2013-01-12 21:04:00,
2013-01-12 13:09:00,48.1,29.3,30.22,SSW,213,2.0,4.0,48,0.00,,,0.00,538,Wunderground v.1.15,2013-01-12 21:09:00,
2013-01-12 13:19:00,48.4,30.1,30.21,SSW,213,2.0,2.0,49,0.00,,,0.00,531,Wunderground v.1.15,2013-01-12 21:19:00,
2013-01-12 13:24:00,48.4,28.5,30.21,WSW,246,2.0,2.0,46,0.00,,,0.00,529,Wunderground v.1.15,2013-01-12 21:24:00,
2013-01-12 13:30:00,48.2,29.4,30.21,SSW,213,2.0,2.0,48,0.00,,,0.00,524,Wunderground v.1.15,2013-01-12 21:30:00,
2013-01-12 13:39:00,48.5,30.2,30.21,WSW,250,2.0,2.0,49,0.00,,,0.00,515,Wunderground v.1.15,2013-01-12 21:39:00,
2013-01-12 13:45:00,48.8,31.0,30.20,WSW,241,2.0,4.0,50,0.00,,,0.00,504,Wunderground v.1.15,2013-01-12 21:45:00,
2013-01-12 13:54:00,48.7,29.9,30.21,WSW,242,2.0,4.0,48,0.00,,,0.00,499,Wunderground v.1.15,2013-01-12 21:54:00,
2013-01-12 13:59:00,49.0,29.6,30.20,WSW,237,2.0,2.0,47,0.00,,,0.00,492,Wunderground v.1.15,2013-01-12 21:59:00,
2013-01-12 14:09:00,49.6,28.6,30.20,WSW,247,2.0,5.0,44,0.00,,,0.00,478,Wunderground v.1.15,2013-01-12 22:09:00,
2013-01-12 14:15:00,49.6,28.0,30.20,SSW,213,2.0,5.0,43,0.00,,,0.00,471,Wunderground v.1.15,2013-01-12 22:15:00,
2013-01-12 14:24:00,49.6,28.0,30.20,WSW,238,2.0,2.0,43,0.00,,,0.00,452,Wunderground v.1.15,2013-01-12 22:24:00,
2013-01-12 14:34:00,49.6,27.4,30.19,WSW,244,3.0,4.0,42,0.00,,,0.00,436,Wunderground v.1.15,2013-01-12 22:34:00,
2013-01-12 14:39:00,49.8,28.2,30.19,WSW,241,2.0,2.0,43,0.00,,,0.00,425,Wunderground v.1.15,2013-01-12 22:39:00,
2013-01-12 14:49:00,50.0,28.9,30.19,WSW,251,2.0,2.0,44,0.00,,,0.00,406,Wunderground v.1.15,2013-01-12 22:49:00,
2013-01-12 14:55:00,50.2,29.1,30.19,WSW,237,2.0,2.0,44,0.00,,,0.00,394,Wunderground v.1.15,2013-01-12 22:55:00,
2013-01-12 15:04:00,50.0,29.5,30.19,WSW,245,2.0,2.0,45,0.00,,,0.00,373,Wunderground v.1.15,2013-01-12 23:04:00,
2013-01-12 15:14:00,49.9,29.4,30.19,WSW,251,1.0,2.0,45,0.00,,,0.00,348,Wunderground v.1.15,2013-01-12 23:14:00,
2013-01-12 15:19:00,49.9,28.3,30.19,SSW,213,1.0,1.0,43,0.00,,,0.00,336,Wunderground v.1.15,2013-01-12 23:19:00,
2013-01-12 15:25:00,49.4,27.8,30.18,WSW,245,1.0,1.0,43,0.00,,,0.00,322,Wunderground v.1.15,2013-01-12 23:25:00,
2013-01-12 15:34:00,48.7,26.0,30.18,WSW,244,0.0,1.0,41,0.00,,,0.00,297,Wunderground v.1.15,2013-01-12 23:34:00,
2013-01-12 15:44:00,48.8,25.5,30.18,WSW,249,0.0,1.0,40,0.00,,,0.00,267,Wunderground v.1.15,2013-01-12 23:44:00,
2013-01-12 15:54:00,49.5,29.6,30.18,WSW,245,2.0,5.0,46,0.00,,,0.00,232,Wunderground v.1.15,2013-01-12 23:54:00,
2013-01-12 15:59:00,49.6,29.1,30.18,WSW,238,2.0,2.0,45,0.00,,,0.00,214,Wunderground v.1.15,2013-01-12 23:59:00,
2013-01-12 16:09:00,49.5,26.7,30.18,WSW,247,2.0,2.0,41,0.00,,,0.00,179,Wunderground v.1.15,2013-01-13 00:09:00,
2013-01-12 16:15:00,49.6,26.8,30.18,WSW,247,1.0,2.0,41,0.00,,,0.00,160,Wunderground v.1.15,2013-01-13 00:15:00,
2013-01-12 16:25:00,49.8,27.0,30.18,WSW,247,1.0,3.0,41,0.00,,,0.00,123,Wunderground v.1.15,2013-01-13 00:25:00,
2013-01-12 16:34:00,49.2,25.9,30.17,WSW,242,2.0,3.0,40,0.00,,,0.00,88,Wunderground v.1.15,2013-01-13 00:34:00,
2013-01-12 16:39:00,49.1,25.2,30.18,WSW,237,2.0,2.0,39,0.00,,,0.00,70,Wunderground v.1.15,2013-01-13 00:39:00,
2013-01-12 16:49:00,48.8,27.3,30.18,WSW,237,2.0,2.0,43,0.00,,,0.00,47,Wunderground v.1.15,2013-01-13 00:49:00,
2013-01-12 16:54:00,48.8,28.4,30.18,WSW,241,1.0,2.0,45,0.00,,,0.00,39,Wunderground v.1.15,2013-01-13 00:54:00,
2013-01-12 17:04:00,48.5,28.6,30.18,WSW,237,1.0,3.0,46,0.00,,,0.00,12,Wunderground v.1.15,2013-01-13 01:04:00,
2013-01-12 17:14:00,48.1,29.3,30.18,WSW,249,1.0,2.0,48,0.00,,,0.00,0,Wunderground v.1.15,2013-01-13 01:14:00,
2013-01-12 17:19:00,48.0,29.7,30.18,WSW,242,1.0,1.0,49,0.00,,,0.00,0,Wunderground v.1.15,2013-01-13 01:19:00,
2013-01-12 17:29:00,48.0,29.7,30.18,WSW,241,1.0,3.0,49,0.00,,,0.00,0,Wunderground v.1.15,2013-01-13 01:29:00,
2013-01-12 17:34:00,48.0,30.2,30.18,WSW,241,1.0,3.0,50,0.00,,,0.00,0,Wunderground v.1.15,2013-01-13 01:34:00,
2013-01-12 17:44:00,47.9,32.5,30.19,WSW,242,0.0,1.0,55,0.00,,,0.00,0,Wunderground v.1.15,2013-01-13 01:44:00,
2013-01-12 17:50:00,47.8,32.4,30.19,WSW,240,0.0,0.0,55,0.00,,,0.00,0,Wunderground v.1.15,2013-01-13 01:50:00,
2013-01-12 17:59:00,47.7,33.2,30.19,WSW,242,1.0,2.0,57,0.00,,,0.00,0,Wunderground v.1.15,2013-01-13 01:59:00,
2013-01-12 18:04:00,47.6,33.1,30.19,WSW,241,1.0,2.0,57,0.00,,,0.00,0,Wunderground v.1.15,2013-01-13 02:04:00,
2013-01-12 18:14:00,47.5,33.4,30.19,WSW,240,1.0,1.0,58,0.00,,,0.00,0,Wunderground v.1.15,2013-01-13 02:14:00,
2013-01-12 18:19:00,47.4,33.4,30.19,WSW,241,0.0,0.0,58,0.00,,,0.00,0,Wunderground v.1.15,2013-01-13 02:19:00,
2013-01-12 18:29:00,47.4,33.8,30.19,WSW,241,0.0,0.0,59,0.00,,,0.00,0,Wunderground v.1.15,2013-01-13 02:29:00,
2013-01-12 18:34:00,47.4,33.8,30.19,WSW,241,0.0,0.0,59,0.00,,,0.00,0,Wunderground v.1.15,2013-01-13 02:34:00,
2013-01-12 18:44:00,47.4,34.2,30.18,WSW,241,0.0,0.0,60,0.00,,,0.00,0,Wunderground v.1.15,2013-01-13 02:44:00,
2013-01-12 18:49:00,47.4,34.2,30.18,WSW,241,0.0,1.0,60,0.00,,,0.00,0,Wunderground v.1.15,2013-01-13 02:49:00,
2013-01-12 18:59:00,47.5,34.3,30.19,WSW,241,1.0,1.0,60,0.00,,,0.00,0,Wunderground v.1.15,2013-01-13 02:59:00,
2013-01-12 19:05:00,47.4,34.2,30.19,WSW,242,0.0,1.0,60,0.00,,,0.00,0,Wunderground v.1.15,2013-01-13 03:05:00,
2013-01-12 19:14:00,47.1,33.9,30.19,WSW,241,0.0,0.0,60,0.00,,,0.00,0,Wunderground v.1.15,2013-01-13 03:14:00,
2013-01-12 19:19:00,47.0,33.8,30.19,WSW,241,0.0,0.0,60,0.00,,,0.00,0,Wunderground v.1.15,2013-01-13 03:19:00,
2013-01-12 19:29:00,46.9,34.1,30.20,WSW,241,0.0,0.0,61,0.00,,,0.00,0,Wunderground v.1.15,2013-01-13 03:29:00,
2013-01-12 19:34:00,46.7,34.4,30.20,WSW,240,0.0,0.0,62,0.00,,,0.00,0,Wunderground v.1.15,2013-01-13 03:34:00,
2013-01-12 19:44:00,46.5,34.6,30.20,WSW,241,0.0,0.0,63,0.00,,,0.00,0,Wunderground v.1.15,2013-01-13 03:44:00,
2013-01-12 19:49:00,46.4,34.5,30.20,WSW,241,0.0,0.0,63,0.00,,,0.00,0,Wunderground v.1.15,2013-01-13 03:49:00,
2013-01-12 19:59:00,46.1,33.8,30.20,WSW,241,0.0,0.0,62,0.00,,,0.00,0,Wunderground v.1.15,2013-01-13 03:59:00,
2013-01-12 20:05:00,45.9,33.2,30.20,WSW,243,0.0,0.0,61,0.00,,,0.00,0,Wunderground v.1.15,2013-01-13 04:05:00,
2013-01-12 20:14:00,45.4,32.7,30.20,WSW,240,0.0,1.0,61,0.00,,,0.00,0,Wunderground v.1.15,2013-01-13 04:14:00,
2013-01-12 20:24:00,44.9,31.8,30.20,WSW,241,1.0,1.0,60,0.00,,,0.00,0,Wunderground v.1.15,2013-01-13 04:24:00,
2013-01-12 20:34:00,44.2,31.6,30.20,WSW,242,0.0,0.0,61,0.00,,,0.00,0,Wunderground v.1.15,2013-01-13 04:34:00,
2013-01-12 20:39:00,44.0,31.8,30.20,WSW,241,0.0,0.0,62,0.00,,,0.00,0,Wunderground v.1.15,2013-01-13 04:39:00,
2013-01-12 20:44:00,43.7,31.1,30.20,WSW,242,0.0,1.0,61,0.00,,,0.00,0,Wunderground v.1.15,2013-01-13 04:44:00,
2013-01-12 20:54:00,43.4,31.2,30.20,WSW,242,1.0,2.0,62,0.00,,,0.00,0,Wunderground v.1.15,2013-01-13 04:54:00,
2013-01-12 20:59:00,43.1,31.0,30.20,WSW,241,2.0,3.0,62,0.00,,,0.00,0,Wunderground v.1.15,2013-01-13 04:59:00,
2013-01-12 21:04:00,43.0,30.5,30.20,WSW,241,2.0,3.0,61,0.00,,,0.00,0,Wunderground v.1.15,2013-01-13 05:04:00,
2013-01-12 21:09:00,42.8,30.7,30.20,WSW,241,1.0,1.0,62,0.00,,,0.00,0,Wunderground v.1.15,2013-01-13 05:09:00,
2013-01-12 21:14:00,42.5,30.8,30.20,WSW,241,0.0,1.0,63,0.00,,,0.00,0,Wunderground v.1.15,2013-01-13 05:14:00,
2013-01-12 21:19:00,42.1,30.4,30.20,WSW,241,0.0,0.0,63,0.00,,,0.00,0,Wunderground v.1.15,2013-01-13 05:19:00,
2013-01-12 21:29:00,41.8,29.7,30.20,South,189,2.0,3.0,62,0.00,,,0.00,0,Wunderground v.1.15,2013-01-13 05:29:00,
2013-01-12 21:39:00,42.2,29.7,30.20,South,176,3.0,4.0,61,0.00,,,0.00,0,Wunderground v.1.15,2013-01-13 05:39:00,
2013-01-12 21:44:00,42.3,29.4,30.20,SSE,157,3.0,4.0,60,0.00,,,0.00,0,Wunderground v.1.15,2013-01-13 05:44:00,
2013-01-12 21:54:00,42.5,28.8,30.20,SSE,154,3.0,3.0,58,0.00,,,0.00,0,Wunderground v.1.15,2013-01-13 05:54:00,
2013-01-12 21:59:00,42.5,28.8,30.21,SSE,153,2.0,3.0,58,0.00,,,0.00,0,Wunderground v.1.15,2013-01-13 05:59:00,
2013-01-12 22:04:00,42.4,28.7,30.21,SE,134,2.0,3.0,58,0.00,,,0.00,0,Wunderground v.1.15,2013-01-13 06:04:00,
2013-01-12 22:09:00,42.3,28.6,30.21,SE,132,3.0,3.0,58,0.00,,,0.00,0,Wunderground v.1.15,2013-01-13 06:09:00,
2013-01-12 22:14:00,42.2,28.5,30.21,SE,130,3.0,3.0,58,0.00,,,0.00,0,Wunderground v.1.15,2013-01-13 06:14:00,
2013-01-12 22:24:00,42.4,28.2,30.22,ESE,122,4.0,5.0,57,0.00,,,0.00,0,Wunderground v.1.15,2013-01-13 06:24:00,
2013-01-12 22:29:00,42.5,28.3,30.22,ESE,120,4.0,4.0,57,0.00,,,0.00,0,Wunderground v.1.15,2013-01-13 06:29:00,
2013-01-12 22:34:00,42.6,28.4,30.22,ESE,119,4.0,4.0,57,0.00,,,0.00,0,Wunderground v.1.15,2013-01-13 06:34:00,
2013-01-12 22:44:00,42.5,27.9,30.23,ESE,120,3.0,4.0,56,0.00,,,0.00,0,Wunderground v.1.15,2013-01-13 06:44:00,
2013-01-12 22:54:00,42.4,27.8,30.23,ESE,118,2.0,2.0,56,0.00,,,0.00,0,Wunderground v.1.15,2013-01-13 06:54:00,
2013-01-12 23:04:00,42.3,26.4,30.23,ESE,104,4.0,5.0,53,0.00,,,0.00,0,Wunderground v.1.15,2013-01-13 07:04:00,
2013-01-12 23:14:00,42.3,25.9,30.23,ESE,105,3.0,5.0,52,0.00,,,0.00,0,Wunderground v.1.15,2013-01-13 07:14:00,
2013-01-12 23:19:00,42.2,25.8,30.23,ESE,105,3.0,3.0,52,0.00,,,0.00,0,Wunderground v.1.15,2013-01-13 07:19:00,
2013-01-12 23:24:00,42.0,25.6,30.23,ESE,104,2.0,3.0,52,0.00,,,0.00,0,Wunderground v.1.15,2013-01-13 07:24:00,
2013-01-12 23:34:00,41.9,25.5,30.24,ESE,104,2.0,4.0,52,0.00,,,0.00,0,Wunderground v.1.15,2013-01-13 07:34:00,
2013-01-12 23:44:00,41.4,26.0,30.24,NE,47,2.0,4.0,54,0.00,,,0.00,0,Wunderground v.1.15,2013-01-13 07:44:00,
2013-01-12 23:49:00,40.9,26.4,30.24,North,353,4.0,4.0,56,0.00,,,0.00,0,Wunderground v.1.15,2013-01-13 07:49:00,
2013-01-12 23:59:00,39.8,27.4,30.25,North,353,4.0,5.0,61,0.00,,,0.00,0,Wunderground v.1.15,2013-01-13 07:59:00,